Погода Богучаны

Погода Богучаны : погода сейчас, прогноз погоды и архив. Всё, что Вы хотите узнать о погоде Богучаны!

Хотите узнать прогноз погоды Богучаны? Тогда Вам сюда: Погода Богучаны

Поиск расширенной информации на нашем сайте:

Другие новости

Новости СМИ2

Главная страница сайта

Новости сайта

03.07.2017

Напоминаем, что на нашем специализированном сайте Метеоцентр.Азия вы можете получить высокодетализированные автоматические прогнозы погоды по пунктам России, СНГ и мира в авиационном формате (включающие направление и скорость ветра, видимость, явления погоды, количество и форму облачности, нижнюю и верхнюю границу облачности).


Погода Богучаны - сегодня

Время (UTC), дата Ветер
(°,м/с) 
Видим.   Явления Облачность Т
(°С)
Тd
(°С)
f(%) Тe
(°С)
Pmin
(гПа)
dP
(гПа)
Po
(мм)
O2
(г/м3)
Тmin Tmax R s Состояние
почвы
18 20.11.17 280 (З) 5-10{13}  50000 м  позёмок{ливн. осадки}  10/10 600 м кучево-дожд. 
[Cb cap]
-12.7 -18 64 -18  1025.8  1.7  756  321           
21 20.11.17 270 (З) 4{11}  50000 м    3/1 600 м кучево-дожд., верхняя 
[Cb cap|Ci fib]
-14.7 -20.1 63 -19  1027.9  758  324           
00 21.11.17 300 (СЗ) 11000 м  слаб. снег  10/3 600 м средняя 
[Frnb|Ac As]
-15 -19.6 68 -19  1029.9  1.9  759  325  -15.3    0.0  равномерный
сухой снег
100% 
03 21.11.17 270 (З) 20000 м  {снег}  8/5 600 м кучево-дожд., средняя, верхняя 
[Cb cap|Ac trans|Ci fib]
-16 -20.1 71 -16  1031.1  1.2  760  327  -16.4         
06 21.11.17 240 (ЮЗ) 20000 м  {снег}  10/0 средняя, верхняя 
[Ac trans|Ci fib]
-13.8 -19 65 -16  1031.3  0.2  760  324           
09 21.11.17 110 (В) 10 км  слаб. снег  10/0 средняя 
[Ac As]
-13.4 -16.6 77 -13  1030.5  -0.7  759  323           
12 21.11.17 130 (ЮВ) 10 км  слаб. снег  10/0 средняя 
[Ac As]
-13.2 -15.5 83 -13  1029.6  -0.9  759  323    -13.2  0.4     
15 21.11.17 100 (В) 10 км  слаб. снег  10/0 средняя 
[Ac As]
-12.7 -14.6 86 -15  1028  -1.5  758  321           
18 21.11.17 130 (ЮВ) 13000 м  слаб. снег  10/0 средняя 
[Ac As]
-12.4 -14.1 87 -12  1026.8  -1.2  757  321           
21 21.11.17 080 (В) 12000 м  слаб. снег  10/0 средняя 
[Ac As]
-12.3 -14.2 86 -12  1026.2  -0.6  756  320           
00 22.11.17 080 (В) 14000 м  слаб. снег  10/0 средняя 
[Ac As]
-12.9 -14.8 86 -15  1025.3  -0.9  756  321  -13.2    10  равномерный
сухой снег
100% 
03 22.11.17 030 (СВ) 10 км  слаб. снег  10/0 средняя 
[Ac As]
-14.2 -16.4 83 -14  1025  -0.4  755  322  -14.2         
06 22.11.17 360 (С) 10 км  слаб. снег  10/0 верхняя 
[Cs]
-16.1 -19 78 -16  1026.3  1.2  756  325           
09 22.11.17 100 (В) 20000 м  {снег}  3/0 верхняя 
[Ci fib]
-17.2 -19.9 80 -17  1029.5  758  328           
12 22.11.17 070 (В) 50000 м  {снег}  4/0 верхняя 
[Ci fib]
-19 -21.6 80 -19  1032.6  761  331    -12.9     
15 22.11.17 230 (ЮЗ) 28000 м    8/3 600 м кучево-дожд., верхняя 
[Cb cap|Ci fib]
-22.3 -24.7 81 -23  1034.4  1.5  762  336           
18 22.11.17 тихо ()   50000 м    3/0 верхняя 
[Ci fib]
-24.3 -26.8 80 -24  1035.6  763  339           
21 22.11.17 240 (ЮЗ) 50000 м    8/0 верхняя 
[Ci fib]
-23.5 -26.3 78 -24  1035.6  0.1  763  338           
00 23.11.17 250 (З) 10 км  слаб. снег  10/3 600 м средняя 
[Frnb|Ac As]
-23.8 -26.4 79 -24  1035.7  0.1  763  338  -24.4    0.0  11  равномерный
сухой снег
100% 
03 23.11.17 тихо ()   10 км  слаб. снег  10/3 600 м средняя 
[Frnb|Ac As]
-23.5 -26.1 79 -24  1036  0.3  763  338  -24.8         
06 23.11.17 тихо ()   20000 м  {снег}  9/3 600 м кучево-дожд., верхняя 
[Cb cap|Ci fib]
-20.7 -23.7 77 -21  1034.8  -1  762  334           
09 23.11.17 тихо ()   20000 м    10/10 600 м кучево-дожд. 
[Cb cap]
-20.1 -22.9 78 -20  1033.8  -0.9  762  333           
12 23.11.17 170 (Ю) 50000 м    10/10 600 м кучево-дожд. 
[Cb cap]
-19.5 -21.9 81 -20  1032.9  -0.9  761  332    -19.4  0.2     
15 23.11.17 тихо ()   50000 м    10/0 верхняя 
[Cs]
-20.9 -23.8 77 -21  1032  -0.9  760  333           
18 23.11.17 тихо ()   50000 м    ясно 
-21.8 -24.4 79 -22  1031.8  -0.4  760  334           
Время (UTC), дата Ветер
(°,м/с) 
Видим.   Явления Облачность Т
(°С)
Тd
(°С)
f(%) Тe
(°С)
Pmin
(гПа)
dP
(гПа)
Po
(мм)
O2
(г/м3)
Тmin Tmax R s Состояние
почвы

Для получения пояснительной информации подведите курсор к названию столбца.

ПОГОДА Богучаны - архив

Всё, что Вы хотите узнать о погоде Богучаны - удобно и подробно!

Выберите нужную дату (начиная с 1 января 2015* года) и нажмите кнопку "Найти".
Будут отображены архивные сводки погоды по пункту Богучаны, начиная с указанной даты.


Отображать данные в формате CSV (для использования в таблицах Excel)


Внимание! Наш архив погоды предназначен исключительно для личного некоммерческого использования в познавательных целях. Если Вам необходимы официальные справки о состоянии погоды (для производственных, юридических, коммерческих и т.п. целей), обращайтесь в органы Росгидромета.

*Примечание: данная дата относится к архиву по метеостанциям СССР (Россия, СНГ, Балтия).
Архив по метеостанциям Зарубежной Европы и Азии (кроме Китая) хранится 10 дней, по другим регионам земного шара (Китай, Африка, Америка, Австралия, Океания) - 1 день.

Богучаны - район местоположения метеостанции


Название, широта, долгота, высота метеостанции:
Богучаны 58.4°ш. 97.4°д. 133 м над ур. моря [Российская Федерация]

Дополнительная информация

В oтличие oт бoльшинства пoгoдных сайтoв мы публикуем пoдрoбную метеoинфoрмацию в детальнoм прoфессиoнальнoм фoрмате.

Характеристики температуры и влажнoсти вoздуха измеряются на высoте 2 м в тени вдали oт зданий и деревьев.
Скoрoсть ветра измеряется на высoте 10 м (на урoвне рoста челoвека скoрoсть ветра ниже в 1.5-2 раза). Если метеoстанция нахoдится в гoрoде или в лесу, тo скoрoсть ветра занижена на 2-4 м/с пo сравнению с oткрытым местoм. Скoрoсть ветра над акватoриями крупных рек и oзёр, а также на вершинах хoлмoв на 2-5 м/с выше, чем в oбычных услoвиях.
Атмoсфернoе давление в разных тoчках местнoсти мoжет значительнo oтличаться oт давления на метеoстанции, в зависимoсти oт услoвий рельефа (при пoдъёме на 10 м давление пoнижается примернo на 1 мм рт.ст.).